TimeMST,TemperatureF,Dew PointF,Humidity,Sea Level PressureIn,VisibilityMPH,Wind Direction,Wind SpeedMPH,Gust SpeedMPH,PrecipitationIn,Events,Conditions,WindDirDegrees,DateUTC
12:51 AM,43.0,12.0,28,30.08,10.0,North,11.5,-,N/A,,Partly Cloudy,10,2013-01-21 07:51:00
1:51 AM,41.0,10.9,29,30.09,10.0,North,10.4,-,N/A,,Partly Cloudy,10,2013-01-21 08:51:00
2:51 AM,42.1,10.9,28,30.09,10.0,North,11.5,-,N/A,,Scattered Clouds,350,2013-01-21 09:51:00
3:51 AM,43.0,10.9,27,30.08,10.0,North,16.1,-,N/A,,Scattered Clouds,350,2013-01-21 10:51:00
4:51 AM,41.0,9.0,27,30.10,10.0,North,12.7,-,N/A,,Scattered Clouds,360,2013-01-21 11:51:00
5:51 AM,37.9,9.0,30,30.13,10.0,NNE,11.5,-,N/A,,Partly Cloudy,20,2013-01-21 12:51:00
6:51 AM,37.9,9.0,30,30.16,10.0,NNE,11.5,-,N/A,,Scattered Clouds,20,2013-01-21 13:51:00
7:51 AM,39.9,10.0,29,30.17,10.0,North,13.8,-,N/A,,Scattered Clouds,360,2013-01-21 14:51:00
8:51 AM,43.0,10.9,27,30.19,10.0,NNE,12.7,-,N/A,,Scattered Clouds,30,2013-01-21 15:51:00
9:51 AM,48.0,10.9,22,30.20,10.0,NNW,12.7,-,N/A,,Scattered Clouds,340,2013-01-21 16:51:00
10:51 AM,53.1,10.9,19,30.18,10.0,North,9.2,-,N/A,,Scattered Clouds,10,2013-01-21 17:51:00
11:51 AM,57.9,9.0,14,30.14,10.0,North,5.8,-,N/A,,Partly Cloudy,360,2013-01-21 18:51:00
12:51 PM,61.0,9.0,13,30.10,10.0,NW,6.9,-,N/A,,Partly Cloudy,320,2013-01-21 19:51:00
1:51 PM,63.0,7.0,11,30.07,10.0,Calm,Calm,-,N/A,,Partly Cloudy,0,2013-01-21 20:51:00
2:51 PM,64.0,5.0,10,30.05,10.0,Calm,Calm,-,N/A,,Partly Cloudy,0,2013-01-21 21:51:00
3:51 PM,64.9,6.1,10,30.03,10.0,Calm,Calm,-,N/A,,Partly Cloudy,0,2013-01-21 22:51:00
4:51 PM,64.0,7.0,11,30.03,10.0,NNE,4.6,-,N/A,,Partly Cloudy,20,2013-01-21 23:51:00
5:51 PM,57.0,8.1,14,30.06,10.0,North,6.9,-,N/A,,Scattered Clouds,10,2013-01-22 00:51:00
6:51 PM,54.0,9.0,17,30.09,10.0,North,6.9,-,N/A,,Scattered Clouds,360,2013-01-22 01:51:00
7:51 PM,51.1,10.0,19,30.10,10.0,North,8.1,-,N/A,,Partly Cloudy,350,2013-01-22 02:51:00
8:51 PM,50.0,10.0,20,30.10,10.0,North,8.1,-,N/A,,Partly Cloudy,10,2013-01-22 03:51:00
9:51 PM,45.0,10.0,24,30.11,10.0,NE,8.1,-,N/A,,Scattered Clouds,50,2013-01-22 04:51:00
10:51 PM,44.1,10.0,25,30.11,10.0,Calm,Calm,-,N/A,,Clear,0,2013-01-22 05:51:00
11:51 PM,41.0,10.4,29,30.19,10.0,North,6.9,-,N/A,,Clear,360,2013-01-22 06:51:00